sat.trackr.live / text

‹ back to catalog

STARLINK-36720

NORAD 67655 · 2026-022H

PAYLOAD ACTIVE UNKNOWN

§ Identity

Operator
Country
US
Launch date
2026-02-02
Launch site
AFWTR
Launch vehicle
Mass (kg)
RCS (m²)

Purposes: comms

External: N2YO · Heavens-Above · Gunter

§ Orbital elements

Epoch: 2026-09-19T19:35:09.448512Z

Period
93.90 min
Inclination
97.2842°
Eccentricity
0.0000858
Mean motion
15.33467206 rev/d
Perigee alt
464.9 km
Apogee alt
466.1 km
Semi-major
6,843.6 km
B*
5.3134e-4
RAAN
294.4092°
Arg perigee
235.0726°
Mean anomaly
125.0436°
Rev number
3,532

§ Raw data

STARLINK-367201 67655U 26022H   26262.81608158  .00017129  00000+0  53134-3 0  99942 67655  97.2842 294.4092 0000858 235.0726 125.0436 15.33467206 35320

JSON: /api/v1/satellites/67655 · /tle

For live sub-satellite position, see the globe view (requires WebGL).

§ Visibility from observer

Set your observer location to see the next 7 days of passes ≥ 10°. The values pass through the URL so the page stays shareable.

No JS? Fill the form by hand. The geolocation button needs JavaScript.